#timestamp,LO_Frequency,Hit,StdDev 
1652587215.3,286047000.7,N
1652587235.1,286046998.1,N
1652587255.9,286046998.9,N
1652587275.7,286047001.2,N
1652587295.5,286047000.8,N
1652587315.4,286047000.9,N
1652587335.2,286047000.4,N
1652587355.0,286047001.0,N
1652587355.9,286047001.0,N
1652587375.8,286047000.6,N
1652587395.6,286047000.1,N
1652587415.5,286046999.9,N
1652587435.3,286047002.8,N
1652587455.1,286047000.5,N
1652587475.9,286046998.5,N
1652587495.7,286047000.7,N
1652587515.5,286047001.1,N
1652587535.4,286047001.2,N
1652587555.2,286046998.2,N
1652587575.1,286047001.0,N
1652587576.0,286047001.0,N
1652587595.8,286047000.4,N
1652587615.6,286047000.0,N
1652587635.5,286046999.9,N
1652587655.3,286046999.8,N
1652587675.2,286047000.3,N
1652587695.9,286047002.2,N
1652587715.7,286047000.2,N
1652587735.6,286047000.0,N
1652587755.4,286047000.5,N
1652587775.2,286047000.4,N
1652587795.1,286047000.4,N
1652587796.0,286047000.4,N
1652587815.8,286047002.8,Y
1652587835.7,286047001.0,P
1652587855.5,286046998.3,P
1652587875.3,286046998.7,N
1652587895.2,286046998.5,N
1652587915.0,286046999.3,N
1652587915.9,286046999.3,N
1652587935.7,286046998.9,N
1652587955.6,286046998.9,N
1652587975.4,286046998.2,N
1652587995.3,286047001.2,N
1652588015.1,286047000.6,N
1652588016.0,286047000.6,N
1652588035.8,286046998.7,N
1652588055.7,286046998.5,N
1652588075.5,286046998.4,N
1652588095.3,286046999.5,N
1652588115.2,286046998.5,N
1652588135.0,286047000.7,N
1652588135.9,286047000.7,N
1652588155.8,286047001.2,N
1652588175.6,286046998.2,N
1652588195.4,286046998.1,N
1652588215.3,286046998.8,N
1652588235.1,286047000.1,N
1652588255.9,286047001.0,N
1652588275.7,286047000.6,N
1652588295.5,286047001.0,N
1652588315.4,286047000.4,N
1652588335.2,286047000.1,N
1652588355.0,286046998.2,N
1652588355.9,286046998.2,N
1652588375.8,286046999.3,N
1652588395.6,286046998.4,N
1652588415.5,286047000.9,N
1652588435.3,286047000.6,N
1652588455.1,286046998.3,N
1652588475.9,286046999.4,N
1652588495.7,286046999.6,N
1652588515.5,286046998.8,N
1652588535.4,286046998.2,N
1652588555.2,286047000.7,N
1652588575.1,286047000.5,N
1652588576.0,286047000.5,N
1652588595.8,286047001.0,N
1652588615.6,286046998.5,N
1652588635.5,286046998.4,N
1652588655.3,286046999.0,N
1652588675.1,286046999.0,N
1652588695.9,286047000.3,N
1652588715.7,286047002.3,N
1652588735.6,286047000.7,N
1652588755.4,286046998.7,N
1652588775.2,286047000.5,N
1652588795.1,286046999.8,N
1652588796.0,286046999.8,N
1652588815.8,286046999.7,N
1652588835.6,286047002.4,N
1652588855.5,286047000.5,N
1652588875.3,286047000.2,N
1652588895.2,286047000.5,N
1652588915.9,286047000.4,N
1652588935.7,286047000.6,N
1652588955.6,286046999.8,N
1652588975.4,286047000.0,N
1652588995.2,286047000.7,N
1652589015.1,286047002.8,N
1652589016.0,286047002.8,N
1652589035.8,286047002.2,N
1652589055.7,286046999.9,N
1652589075.5,286046999.7,N
1652589095.3,286047002.6,N
1652589115.2,286047002.2,N
1652589135.0,286046999.8,N
1652589135.9,286046999.8,N
1652589155.8,286047002.6,N
1652589175.6,286047002.7,N
1652589195.4,286047000.1,N
1652589215.3,286047002.7,N
1652589235.1,286047001.0,N
1652589255.8,286046999.9,N
1652589275.7,286047000.0,N
1652589295.5,286046999.2,N
1652589315.4,286046999.0,N
1652589335.2,286046998.6,N
1652589355.0,286046998.3,N
1652589385.9,286047001.0,E
1652589395.9,286046998.6,N
1652589415.7,286046999.0,P
1652589435.5,286047000.7,P
1652589455.4,286046998.1,N
1652589475.2,286046998.2,N
1652589495.1,286047001.2,N
1652589496.0,286047001.2,N
1652589515.8,286046998.8,N
1652589535.6,286046998.9,N
1652589555.5,286046999.1,N
1652589575.3,286046996.6,Y
1652589595.1,286046998.4,P
1652589615.9,286046998.9,N
1652589635.7,286047000.4,N
1652589655.6,286047001.2,N
1652589675.4,286047001.0,N
1652589695.2,286047001.8,N
1652589715.1,286047002.7,N
1652589716.0,286047002.7,N
1652589735.8,286047002.4,N
1652589755.6,286047002.1,N
1652589775.5,286047002.0,N
1652589795.3,286047001.8,N
1652589815.2,286047003.8,N
1652589835.0,286047003.2,N
1652589835.9,286047003.2,N
1652589855.7,286047003.8,N
1652589875.6,286047004.4,N
1652589895.4,286047004.3,N
1652589915.3,286047001.6,N
1652589935.1,286047002.8,N
1652589936.0,286047002.8,N
1652589955.8,286047002.8,N
1652589975.7,286047002.1,N
1652589995.5,286047001.6,N
1652590015.3,286047002.0,N
1652590035.2,286047002.2,N
1652590055.0,286047001.8,N
1652590055.9,286047001.8,N
1652590075.8,286047002.7,N
1652590095.6,286047000.3,N
1652590115.4,286047002.8,N
1652590135.3,286047002.5,N
1652590155.1,286047002.2,N
1652590175.9,286047000.2,N
1652590195.7,286046999.8,N
1652590215.5,286047002.6,N
1652590235.4,286047002.6,N
1652590255.2,286047002.5,N
1652590275.1,286046999.8,N
1652590276.0,286046999.8,N
1652590295.8,286046998.5,N
1652590315.6,286046999.3,N
1652590335.5,286047000.6,N
1652590355.3,286046999.8,N
1652590375.1,286047000.7,N
1652590395.9,286046998.3,N
1652590415.7,286046998.9,N
1652590435.6,286046996.7,N
1652590455.4,286046997.2,N
1652590475.2,286046997.8,N
1652590495.1,286046997.5,N
1652590496.0,286046997.5,N
1652590515.8,286046997.5,N
1652590535.7,286046996.6,N
1652590555.5,286046999.6,N
1652590575.3,286046998.6,N
1652590595.2,286046998.9,N
1652590615.0,286046999.0,N
1652590615.9,286046999.0,N
1652590635.7,286046999.4,N
1652590655.6,286046999.6,N
1652590675.4,286046997.0,N
1652590695.3,286046996.8,N
1652590715.1,286046998.0,N
1652590716.0,286046998.0,N
1652590735.8,286046997.9,N
1652590755.7,286046997.4,N
1652590775.5,286046998.6,N
1652590795.4,286046999.5,N
